星链-31557 (STARLINK-31557 )

导读

STARLINK-31557是美国SpaceX星链互联网卫星项目中的一颗卫星,于北京时间2024年3月31日8点发射升空。作为星链星座组网部署的组成部分,它承担着为全球提供低延迟、高速率卫星互联网接入服务的任务,依托低轨轨道布局,助力星链完成全球覆盖的组网目标,拓展卫星互联网的服务边界。

基本信息
目录编号:
59357
目录名称:
STARLINK-31557
国际标识:
2024-060K
轨道中心:
EARTH
卫星名称:
星链-31557
卫星全名:
星链-31557 (STARLINK-31557 )
卫星状态:
在轨 (已飞行887 天)
发射日期:
2024-03-31 UTC
国别 :
美国 (US)
星等 :
--
轨道信息
数据来源 国际轨道数据 AOE轨道数据
星历时间 2026-09-03T23:09:03+0800
15小时前
查看轨道信息
2026-09-01T02:00:00+0800
3天前
查看轨道信息
半长轴 6861.207km 6861.127km
偏心率 0.0001487 0.0001558
轨道倾角 43.005° 43.007°
近地点辐角 275.649° 254.792°
升交点赤经 330.842° 347.117°
平近点角 84.419° 81.729°
近地点 482.049km 481.921km
远地点 484.091km 484.059km
周期 94.267分钟 94.266分钟
每日圈数 15.275733 15.275998
详细信息
固有亮度:
5
最大亮度:
0.3
卫星平台:
Starlink v2.0 mini
覆盖范围:
全球
运营商:
太空探索技术公司
运营商所在国:
美国
制造商(研发单位):
太空探索技术公司
制造商所在国:
美国
使用方式:
暂无
卫星简介
星链(Starlink)计划是由太空探索技术公司(SpaceX)提出的一个巨型低轨卫星互联网星座项目,计划在2019年至2024年间在太空搭建由约1.2万颗卫星组成的“星链”网络,其中1584颗将部署在地球上空550千米处的近地轨道,并从2020年开始工作。该卫星仍在工作。
2D轨道图
3D轨道图
轨道高度分析图
轨道倾角分析图
轨道综合分析图
查看轨道综合分析图
交会数据列表
事件ID 空间交会对象 最接近时刻(TCA) 交会距离 交会风险概率(CRP) 交会风险指数(CRI) 操作
CDM_260905-032105-935706-341121
2026-09-05T
03:21:18+0000
1.952 km
极远距离
2.351223E-6 低风险 0.42
CDM_260903-105905-935706-539921
2026-09-03T
10:59:47+0000
2.817 km
极远距离
1.38998E-6 低风险 0.38